"Pseudo-MPEC" for C1HRLY2

Created 2019 Dec 3 23:07:25 UT using Find_Orb

Click here for an explanation of pseudo-MPECs

 
 Astrometry: 
     C1HRLY2  C2019 12 03.22588 02 26 02.92 +24 31 08.4    ~C367 19.7 GVNEOCPG96
     C1HRLY2  C2019 12 03.23159 02 26 06.80 +24 32 35.7    ~C367 19.7 GVNEOCPG96
     C1HRLY2  C2019 12 03.23730 02 26 10.69 +24 34 03.1    ~C367 19.4 GVNEOCPG96
     C1HRLY2  C2019 12 03.29450 02 26 50.98 +24 48 41.3    ~C37M 19.7 GVNEOCPI52
     C1HRLY2  C2019 12 03.29506 02 26 51.38 +24 48 50.4    ~C37M 18.9 GVNEOCPI52
     C1HRLY2  C2019 12 03.29562 02 26 51.80 +24 48 59.1    ~C37M 19.4 GVNEOCPI52
     C1HRLY2  C2019 12 03.29619 02 26 52.21 +24 49 07.8    ~C37M 19.9 GVNEOCPI52
     C1HRLY2  C2019 12 03.41115 02 28 24.86 +25 19 06.0    ~C3A7 20.8 GVNEOCPI52
     C1HRLY2  C2019 12 03.41172 02 28 25.36 +25 19 15.5    ~C3A7 21.4 GVNEOCPI52
     C1HRLY2  C2019 12 03.41227 02 28 25.86 +25 19 23.5    ~C3A7 20.5 GVNEOCPI52
     C1HRLY2  C2019 12 03.41283 02 28 26.37 +25 19 32.1    ~C3A7 20.6 GVNEOCPI52
     C1HRLY2 KC2019 12 034Gv\Ixm8NU-'i7BYHU.q^4`[DCFWXmSn+/+Ddl%.)GbI[J@@^8s$K63
     C1HRLY2 KC2019 12 035@[G3Astrometryh*M29XVW%5e.7lK`redacted;'u'!4a9-f)'GK63
     C1HRLY2 KC2019 12 03P;jFy=XlPhIU$i=;5h!\,x1md:ueEjUkiMJ[#8^XpMOebAY6#QB!K63
     C1HRLY2 KC2019 12 03bi?Wd_TnGwAq2DdqVZx,;$AtnDKjgYsxDXTRclickMPHMbG7Y#L2L01
     C1HRLY2 bC2019 12 03cLMAmGikLYEmm?lkwFC$HsMP6tgIQm[os.jf/Z25mW)`PuQNuu,xL01
     C1HRLY2 IC2019 12 03HYN8-ob9cC.\,x#hereo2i+Fhfwcrfor%8m16oEd.,4pEwmS3S,jL01
     C1HRLY2 KC2019 12 03#YbDZPeW9]6Q*!By`a-t1RqY`_2lOi0/Q/i'tt1jL;kHnF.VS)g+L01
     C1HRLY2 KC2019 12 03TFk937iRT1A5_u0pe610^%Vexplanationl5cO#o*#:wj,@m.r!?L01
     C1HRLY2 KC2019 12 03.80485802 36 23.35 +27 22 46.8    ~C3Jq 19.5 GVNEOCPJ95
     C1HRLY2 KC2019 12 03.80894302 36 28.00 +27 24 15.4    ~C3Jq 19.6 GVNEOCPJ95
     C1HRLY2 KC2019 12 03.81341002 36 33.17 +27 25 53.5    ~C3Jq 19.4 GVNEOCPJ95
     C1HRLY2 KC2019 12 03.81749602 36 37.86 +27 27 23.8    ~C3Jq 19.3 GVNEOCPJ95

Station data:
(G96) Mt. Lemmon Survey  (N32.442754 W110.788720)  US/Arizona.  Observers T.
   A. Pruyne, B. M. Africano, E. J. Christensen, G. A. Farneth, D. C. Fuls,
   A. R. Gibbs, A. D. Grauer, H. Gröller, J. A. Johnson, R. A. Kowalski, S.
   M. Larson, G. J. Leonard, D. Rankin, R. L. Seaman, F. C. Shelly. 1.5-m
   reflector + 10K CCD.
(I52) Steward Observatory, Mt. Lemmon Station  (N32.442547 W110.788920)
   US/Arizona.  Observers T. A. Pruyne, B. M. Africano, E. J. Christensen, G.
   A. Farneth, D. C. Fuls, A. R. Gibbs, A. D. Grauer, H. Gröller, J. A.
   Johnson, R. A. Kowalski, S. M. Larson, G. J. Leonard, D. Rankin, R. L.
   Seaman, F. C. Shelly. 1.0-m reflector + CCD.
(J95) Great Shefford  (N51.474969 W1.447003)  UK.  Observer P. Birtwhistle.
   0.40-m f/6.0 Schmidt-Cassegrain + CCD.
(K63) G. Pascoli Observatory, Castelvecchio Pascoli  (N44.082410 E10.462000)
   Italy.
(L01) Višnjan Observatory, Tičan  (N45.290900 E13.749300)  Croatia.
   Observers K. Korlević, E. Pettarin. Measurer E. Pettarin. 1.0-m f/2.9
   reflector + CCD.

Orbital elements:  C1HRLY2
   Perihelion 2019 Dec 26.636241 +/- 0.0048 TT = 15:16:11 (JD 2458844.136241)
Epoch 2019 Dec  4.0 TT = JDT 2458821.5   Earth MOID: 0.0037   Ma: 0.0193
M 354.40332076 +/- 0.017            (J2000 ecliptic)          AutoNEOCP
n   0.24724419 +/- 0.000779         Peri.   58.03263 +/- 0.15
a   2.51411598 +/- 0.00528          Node    42.55145 +/- 0.14
e   0.6225502 +/- 0.000816          Incl.    0.39233 +/- 0.0017
P   3.99                   H 27.7   G  0.15   U  7.9  
q 0.94895248 +/- 6.79e-5    Q 4.07927948 +/- 0.0106
From 23 observations 2019 Dec. 3 (14.2 hr); mean residual 0".25
Residuals in arcseconds: 
191203 G96  .05-  .05+    191203 I52  .16-  .51+    191203 L01  .36-  .08-    
191203 G96  .08+  .05+    191203 I52  .05-  .25-    191203 L01  .10+  .19-    
191203 G96  .09+  .10+    191203 I52  .07+  .57-    191203 L01  .25-  .39+    
191203 I52  .06+  .46-    191203 K63  .10+  .10+    191203 J95  .37+  .43+    
191203 I52  .07-  .00     191203 K63  .53-  .07-    191203 J95  .25-  .43-    
191203 I52  .08+  .06+    191203 K63  .07+  .61+    191203 J95  .14+  .33-    
191203 I52  .01-  .04-    191203 L01  .14-  .21+    191203 J95  .09-  .19+    
191203 I52  .03-  .09+    191203 L01  .13-  .16+    

Ephemerides (geocentric):
Date (UTC) HH   RA              Dec         delta   r     elong  mag " sig PA
---- -- -- --  -------------   -----------  ------ ------ -----  --- ---- ---
2019 12 03 23  02 39 33.560   +28 24 07.01  .01549 0.9995 152.4 19.9 .432 108
2019 12 04 00  02 40 33.908   +28 40 35.44  .01528 0.9993 152.6 19.9 .496 101
2019 12 04 01  02 41 36.305   +28 57 30.08  .01507 0.9991 152.7 19.8 .572  96
2019 12 04 02  02 42 40.855   +29 14 51.84  .01486 0.9989 152.9 19.8 .659  91
2019 12 04 03  02 43 47.666   +29 32 41.71  .01464 0.9987 153.1 19.8 .759  86
2019 12 04 04  02 44 56.856   +29 51 00.68  .01443 0.9986 153.2 19.7 .872  83
2019 12 04 05  02 46 08.550   +30 09 49.80  .01422 0.9984 153.4 19.7 1.00  79
2019 12 04 06  02 47 22.879   +30 29 10.15  .01401 0.9982 153.5 19.6 1.14  77
2019 12 04 07  02 48 39.988   +30 49 02.85  .01381 0.9980 153.7 19.6 1.30  74
2019 12 04 08  02 50 00.029   +31 09 29.06  .01360 0.9979 153.9 19.6 1.47  72
2019 12 04 09  02 51 23.165   +31 30 29.97  .01339 0.9977 154.0 19.5 1.66  70
2019 12 04 10  02 52 49.572   +31 52 06.82  .01318 0.9975 154.2 19.5 1.87  68
2019 12 04 11  02 54 19.439   +32 14 20.88  .01298 0.9973 154.4 19.4 2.10  67
2019 12 04 12  02 55 52.969   +32 37 13.47  .01278 0.9972 154.5 19.4 2.35  65
2019 12 04 13  02 57 30.379   +33 00 45.92  .01257 0.9970 154.7 19.4 2.63  64
2019 12 04 14  02 59 11.906   +33 24 59.62  .01237 0.9968 154.9 19.3 2.93  63
2019 12 04 15  03 00 57.803   +33 49 55.95  .01217 0.9966 155.0 19.3 3.25  62
2019 12 04 16  03 02 48.343   +34 15 36.36  .01197 0.9965 155.2 19.2 3.61  61
2019 12 04 17  03 04 43.823   +34 42 02.29  .01177 0.9963 155.4 19.2 4.00  60
2019 12 04 18  03 06 44.563   +35 09 15.18  .01157 0.9961 155.5 19.2 4.42  60
2019 12 04 19  03 08 50.909   +35 37 16.49  .01138 0.9959 155.7 19.1 4.87  59
2019 12 04 20  03 11 03.236   +36 06 07.67  .01118 0.9958 155.8 19.1 5.36  59
2019 12 04 21  03 13 21.953   +36 35 50.13  .01099 0.9956 155.9 19.0 5.90  58
2019 12 04 22  03 15 47.503   +37 06 25.25  .01080 0.9954 156.1 19.0 6.48  58
2019 12 04 23  03 18 20.365   +37 37 54.34  .01061 0.9953 156.2 19.0 7.10  58
2019 12 05 00  03 21 01.064   +38 10 18.62  .01042 0.9951 156.3 18.9 7.78  57
2019 12 05 01  03 23 50.170   +38 43 39.22  .01024 0.9949 156.4 18.9 8.51  57
2019 12 05 02  03 26 48.303   +39 17 57.08  .01005 0.9947 156.4 18.8 9.30  57
2019 12 05 03  03 29 56.140   +39 53 12.98  .00987 0.9946 156.4 18.8 10.2  57
2019 12 05 04  03 33 14.418   +40 29 27.44  .00969 0.9944 156.5 18.7 11.1  57
2019 12 05 05  03 36 43.943   +41 06 40.68  .00951 0.9942 156.4 18.7 12.1  57
2019 12 05 06  03 40 25.591   +41 44 52.57  .00934 0.9941 156.4 18.7 13.1  57
2019 12 05 07  03 44 20.320   +42 24 02.51  .00916 0.9939 156.3 18.6 14.3  58
2019 12 05 08  03 48 29.172   +43 04 09.38  .00900 0.9937 156.2 18.6 15.5  58
2019 12 05 09  03 52 53.280   +43 45 11.41  .00883 0.9936 156.0 18.6 16.8  58
2019 12 05 10  03 57 33.878   +44 27 06.06  .00867 0.9934 155.8 18.5 18.2  59
2019 12 05 11  04 02 32.302   +45 09 49.89  .00850 0.9932 155.6 18.5 19.7  59
2019 12 05 12  04 07 49.996   +45 53 18.38  .00835 0.9930 155.2 18.5 21.3  60
2019 12 05 13  04 13 28.513   +46 37 25.79  .00819 0.9929 154.9 18.4 23.1  61
2019 12 05 14  04 19 29.516   +47 22 04.91  .00804 0.9927 154.4 18.4 24.9  62
2019 12 05 15  04 25 54.773   +48 07 06.90  .00790 0.9925 153.9 18.4 26.8  63
2019 12 05 16  04 32 46.142   +48 52 21.02  .00776 0.9924 153.3 18.4 28.9  64
2019 12 05 17  04 40 05.555   +49 37 34.39  .00762 0.9922 152.7 18.3 31.1  65
2019 12 05 18  04 47 54.987   +50 22 31.80  .00749 0.9920 152.0 18.3 33.4  66
2019 12 05 19  04 56 16.412   +51 06 55.41  .00736 0.9919 151.2 18.3 35.8  67
2019 12 05 20  05 05 11.738   +51 50 24.59  .00724 0.9917 150.3 18.3 38.4  69
2019 12 05 21  05 14 42.732   +52 32 35.78  .00713 0.9915 149.4 18.3 41.0  71
2019 12 05 22  05 24 50.908   +53 13 02.43  .00702 0.9914 148.3 18.3 43.8  72